Weather History for Crestview, FL

Change the Weather History Date:

Saturday, March 23, 2013

  Actual Average Record
Temperature  
Mean Temperature 61 °F -  
Max Temperature 69 °F 74 °F 84 °F (1991)
Min Temperature 54 °F 45 °F 30 °F (1999)
Degree Days  
Heating Degree Days 4    
Growing Degree Days 11 (Base 50)    
Moisture  
Dew Point 56 °F    
Average Humidity 80    
Maximum Humidity 94    
Minimum Humidity 51    
Precipitation  
Precipitation 0.14 in - - ()
Sea Level Pressure  
Sea Level Pressure 29.80 in    
Wind  
Wind Speed 3 mph (ENE)    
Max Wind Speed 12 mph    
Max Gust Speed -    
Visibility 8 miles    
Events Rain , Thunderstorm    
Averages and records for this station are not official NWS values.
T = Trace of Precipitation, MM = Missing Value Source: NWS Daily Summary

Daily Weather History Graph

Daily Weather History Graph

Search for Another Location

Airport:

Trip Planner

Search our weather history database for the weather conditions in past years. The results will help you decide how hot, cold, wet, or windy it might be!

Date:

Astronomy

Mar. 23, 2013 Rise Set
Actual Time 6:45 AM CDT 6:59 PM CDT
Civil Twilight 6:21 AM CDT 7:23 PM CDT
Nautical Twilight 5:53 AM CDT 7:51 PM CDT
Astronomical Twilight 5:25 AM CDT 8:20 PM CDT
Moon 3:38 PM CDT (3/23) 4:08 AM CDT (3/23)
Length of Visible Light 13h 01m
Length of Day
12h 13m
Waxing Gibbous, 85% of the Moon is Illuminated
Mar 23
Waxing Gibbous
Mar 27
Full
Apr 2
Last Quarter
Apr 10
New
Apr 18
First Quarter

Hourly Weather History & Observations

Time (CDT) Temp. Dew Point Humidity Pressure Visibility Wind Dir Wind Speed Gust Speed Precip Events Conditions
12:53 AM 57.9 °F 39.9 °F 51% 29.93 in 9.0 mi Calm Calm - N/A   Overcast
1:53 AM 57.9 °F 41.0 °F 53% 29.92 in 10.0 mi Calm Calm - N/A   Overcast
2:53 AM 57.9 °F 42.1 °F 56% 29.90 in 9.0 mi Calm Calm - N/A   Overcast
3:53 AM 54.0 °F 48.0 °F 80% 29.85 in 9.0 mi ENE 3.5 mph - 0.02 in   Overcast
4:53 AM 57.0 °F 46.9 °F 69% 29.86 in 10.0 mi Calm Calm - N/A   Overcast
5:53 AM 57.0 °F 46.9 °F 69% 29.86 in 10.0 mi Calm Calm - N/A   Overcast
6:53 AM 57.9 °F 46.9 °F 67% 29.88 in 10.0 mi Calm Calm - N/A   Overcast
7:53 AM 57.9 °F 51.1 °F 78% 29.87 in 10.0 mi Calm Calm - 0.00 in   Overcast
8:41 AM 62.6 °F 51.8 °F 68% 29.86 in 10.0 mi SE 9.2 mph - N/A   Overcast
8:53 AM 62.1 °F 52.0 °F 70% 29.87 in 10.0 mi Variable 3.5 mph - N/A   Overcast
9:50 AM 64.4 °F 57.2 °F 77% 29.87 in 8.0 mi ENE 5.8 mph - N/A   Overcast
9:53 AM 64.9 °F 57.0 °F 75% 29.87 in 8.0 mi ENE 5.8 mph - N/A   Overcast
10:53 AM 64.9 °F 55.0 °F 70% 29.87 in 10.0 mi ENE 4.6 mph - N/A   Overcast
11:53 AM 66.0 °F 57.9 °F 75% 29.86 in 10.0 mi Calm Calm - 0.00 in   Overcast
12:36 PM 68.0 °F 59.0 °F 73% 29.84 in 9.0 mi NE 5.8 mph - N/A Thunderstorm Overcast
12:51 PM 68.0 °F 59.0 °F 73% 29.83 in 9.0 mi NE 6.9 mph - N/A   Overcast
12:53 PM 68.0 °F 59.0 °F 73% 29.83 in 9.0 mi ENE 6.9 mph - N/A   Overcast
1:25 PM 68.0 °F 59.0 °F 73% 29.81 in 8.0 mi ENE 4.6 mph - N/A Thunderstorm Thunderstorm
1:40 PM 68.0 °F 60.8 °F 78% 29.80 in 8.0 mi Variable 3.5 mph - N/A   Overcast
1:53 PM 68.0 °F 60.1 °F 76% 29.80 in 8.0 mi NNE 6.9 mph - N/A Thunderstorm Overcast
2:14 PM 68.0 °F 60.8 °F 78% 29.78 in 8.0 mi ENE 3.5 mph - N/A   Overcast
2:53 PM 66.0 °F 61.0 °F 84% 29.79 in 7.0 mi ESE 6.9 mph - 0.00 in Rain Light Rain
3:28 PM 64.4 °F 60.8 °F 88% 29.76 in 6.0 mi ENE 6.9 mph - 0.00 in Rain Light Rain
3:35 PM 64.4 °F 60.8 °F 88% 29.76 in 5.0 mi Variable 4.6 mph - 0.00 in Rain , Thunderstorm Light Rain
3:41 PM 64.4 °F 60.8 °F 88% 29.77 in 1.8 mi East 6.9 mph - 0.08 in Rain , Thunderstorm Heavy Rain
3:53 PM 64.0 °F 61.0 °F 90% 29.76 in 2.0 mi Variable 4.6 mph - 0.12 in Rain , Thunderstorm Light Rain
3:59 PM 64.4 °F 60.8 °F 88% 29.76 in 3.0 mi East 4.6 mph - 0.00 in Rain , Thunderstorm Light Rain
4:11 PM 64.4 °F 60.8 °F 88% 29.75 in 4.0 mi East 8.1 mph - 0.00 in Rain Light Rain
4:53 PM 64.0 °F 61.0 °F 90% 29.76 in 5.0 mi ENE 8.1 mph - 0.00 in   Overcast
5:34 PM 62.6 °F 60.8 °F 94% 29.75 in 6.0 mi East 6.9 mph - N/A   Overcast
5:48 PM 62.6 °F 59.0 °F 88% 29.75 in 10.0 mi East 11.5 mph - N/A   Overcast
5:53 PM 62.1 °F 59.0 °F 90% 29.74 in 10.0 mi East 9.2 mph - N/A   Overcast
6:53 PM 61.0 °F 57.9 °F 90% 29.73 in 10.0 mi ENE 8.1 mph - N/A   Overcast
7:53 PM 60.1 °F 57.9 °F 93% 29.71 in 7.0 mi East 5.8 mph - 0.00 in   Overcast
8:20 PM 60.8 °F 57.2 °F 88% 29.71 in 7.0 mi East 3.5 mph - 0.00 in Rain Light Rain
8:53 PM 60.1 °F 57.9 °F 93% 29.70 in 8.0 mi East 4.6 mph - 0.00 in   Overcast
9:53 PM 61.0 °F 59.0 °F 93% 29.69 in 6.0 mi Variable 5.8 mph - 0.00 in Rain Light Rain
10:53 PM 61.0 °F 59.0 °F 93% 29.66 in 5.0 mi ESE 4.6 mph - 0.00 in   Overcast
11:53 PM 63.0 °F 61.0 °F 93% 29.64 in 4.0 mi Calm Calm - 0.00 in   Overcast